Presure
202 354 358 367 343 336 330 304 308 290 294 282 258 300 302 263 241 269 264 252 233 208 211 209 201 203 199 201 207 215 217 193 207 203 212 179 195 195 199 202 208 181 189 215 216 193 206
336 335 324 314 307 326 359 355 346 338 353 331 320 307 287 276 271 257 257 251 239 208 216 206 214 214 205 198 213 207 206 213 193 203 196 205 214 199 222 206 171 196 180 207 218 210 225
326 316 297 295 296 295 287 301 334 323 321 316 302 291 275 277 258 251 245 240 239 214 215 217 213 214 216 216 215 213 208 217 204 191 203 204 207 205 212 213 201 211 199 226 234 213 213
310 280 299 296 268 280 284 283 267 326 309 263 295 279 273 261 248 238 232 235 224 223 221 222 233 236 231 228 223 221 218 218 207 202 200 202 203 207 204 170 212 220 219 215 228 228 216
297 301 302 283 260 265 275 267 272 270 325 301 288 279 259 242 242 231 229 230 309 300 294 277 261 215 240 126 180 182 216 214 215 206 200 205 204 185 197 211 187 220 221 223 217 223 204
287 293 292 291 282 278 264 260 246 255 255 312 276 263 264 250 242 234 230 230 298 290 279 264 251 244 235 232 223 221 215 218 210 221 201 209 202 204 204 213 201 226 220 221 239 214 235
309 303 287 257 245 264 266 246 252 250 247 246 308 267 264 255 235 240 230 231 287 279 263 253 246 233 235 216 223 218 216 201 216 220 215 208 208 211 215 220 222 212 220 233 219 225 227
298 302 284 253 263 254 245 252 252 234 249 239 247 244 261 268 250 239 233 229 221 272 260 250 239 235 229 224 227 217 221 211 213 214 214 217 210 211 214 210 213 216 228 224 237 237 227
319 162 287 274 252 261 309 343 246 243 243 240 237 238 232 270 240 243 234 229 224 264 264 244 241 238 234 233 223 227 153 214 214 174 223 222 213 214 216 222 183 226 224 233 229 234 232
313 296 293 273 264 492 500 494 495 501 357 240 239 242 232 244 271 235 237 230 227 214 278 261 250 239 238 239 230 240 236 219 228 229 227 228 223 228 235 243 237 227 220 226 234 232 229
299 305 295 276 507 475 482 492 511 492 482 342 275 239 234 242 261 261 235 240 228 218 214 271 259 243 234 233 234 234 233 231 232 237 237 235 238 245 238 235 240 239 236 238 238 238 244
310 296 294 279 471 485 538 559 552 566 518 500 295 261 235 230 241 258 260 241 232 227 221 204 191 245 242 256 249 242 240 239 234 234 234 280 271 209 222 253 257 236 239 250 256 267 274
297 303 298 285 457 527 578 494 521 499 509 477 486 287 258 233 231 241 265 258 225 238 216 211 210 212 205 207 206 196 202 213 209 211 213 216 218 222 222 226 237 261 276 287 303 289 291
303 303 293 357 463 588 451 451 461 468 501 475 471 367 282 249 236 236 244 265 268 230 229 212 209 211 210 211 211 216 210 207 213 218 225 223 219 228 247 301 311 315 307 301 292 275 281
301 303 292 426 471 570 443 439 478 471 528 462 466 359 329 258 241 231 242 244 248 210 217 223 222 210 213 153 206 205 207 217 224 223 219 236 297 295 266 95 255 260 256 259 280 287 294
305 301 290 460 478 489 428 440 491 465 504 441 484 350 364 280 248 233 240 235 236 231 216 215 215 217 218 210 213 211 211 211 213 233 283 266 252 331 358 377 393 410 407 301 275 262 264
306 299 288 502 529 439 430 435 471 473 484 447 363 340 336 289 264 244 228 235 226 225 233 226 223 210 210 211 211 213 225 225 246 265 241 318 332 317 317 317 324 325 283 156 173 356 336
307 298 289 508 458 452 435 475 458 486 469 444 346 331 330 327 281 261 219 224 235 218 217 219 221 212 215 208 207 225 223 278 279 323 334 315 319 313 313 315 314 319 330 342 338 373 370
300 296 292 530 455 456 491 474 469 444 422 351 350 320 323 328 322 262 235 230 229 227 217 210 214 214 211 211 216 224 260 255 247 254 254 259 270 274 305 315 310 318 359 358 349 374 412
299 293 294 587 459 534 461 496 466 446 411 347 337 330 335 332 313 303 249 234 229 226 219 222 218 216 215 217 223 253 252 276 217 256 209 249 249 255 258 300 351 353 354 395 377 334 328
296 291 294 535 501 480 497 464 432 358 353 324 320 305 296 295 300 328 335 245 228 221 223 227 221 219 217 224 267 235 260 243 201 244 247 236 234 249 250 242 263 290 327 231 316 309 305
294 285 416 627 451 430 446 434 434 352 331 329 304 298 312 301 301 308 313 321 258 237 231 222 220 228 202 247 232 259 187 215 217 239 241 242 235 245 242 246 241 255 259 256 263 277 280
293 282 597 401 402 455 435 367 349 337 325 307 305 303 305 309 302 307 162 159 306 245 246 238 234 216 264 270 239 218 234 240 238 240 230 227 247 222 201 232 244 236 259 265 249 259 164
291 281 621 393 383 456 428 345 334 345 317 297 288 301 291 292 292 297 283 328 301 299 295 238 244 236 255 219 242 218 250 221 241 241 230 235 238 232 232 190 233 238 231 245 238 253 261
289 280 420 401 370 365 350 350 328 331 320 301 299 289 279 299 289 293 299 302 300 286 245 256 255 249 224 239 243 191 234 238 204 180 240 227 235 216 250 198 98 219 239 233 231 115 231
287 276 306 440 358 351 369 338 317 302 298 296 298 290 292 310 318 327 292 288 289 276 268 255 232 250 239 242 223 232 210 253 183 235 217 230 230 146 157 162 241 218 240 243 238 234 237
287 276 304 667 374 355 366 314 302 311 290 298 286 283 245 279 282 282 275 277 274 263 250 230 257 227 243 237 224 237 217 182 214 167 205 173 190 219 201 157 187 213 232 235 245 245 246
285 274 307 675 447 359 349 313 312 302 302 296 277 299 288 285 276 272 278 261 253 242 229 175 227 227 249 245 239 239 180 191 233 172 213 217 222 163 125 194 213 213 211 201 197 209 237
286 274 325 668 640 378 346 334 303 308 310 307 295 238 295 279 272 270 263 252 243 228 213 232 222 217 249 239 247 245 211 197 228 228 186 215 210 235 236 224 206 215 205 168 234 229 233
Wind_Speed
51 42 39 41 46 53 62 61 68 66 70 68 60 63 55 57 57 64 69 73 75 69 73 73 73 73 73 73 75 74 70 74 67 69 61 68 69 69 68 67 67 58 63 65 67 73 66
40 37 37 35 34 34 39 40 45 49 46 51 53 52 53 55 58 59 63 67 71 71 73 73 74 74 76 76 76 76 73 71 71 65 72 63 57 69 55 66 50 69 61 69 66 70 67
35 35 37 37 37 35 34 34 37 39 41 44 49 49 51 53 54 55 57 59 63 70 74 75 74 76 79 78 80 81 75 74 70 74 68 66 63 63 62 66 74 62 71 61 61 72 69
41 41 37 35 35 34 36 33 31 38 40 42 48 49 50 52 54 51 51 55 60 68 73 78 82 83 83 82 83 80 78 75 70 73 71 69 68 68 66 57 69 62 61 66 64 66 67
53 44 39 36 36 34 35 30 33 31 44 45 49 50 51 48 53 51 49 51 56 64 72 78 81 68 80 38 59 62 75 74 71 74 73 70 73 63 73 68 68 69 65 63 67 65 70
70 51 47 43 43 43 37 33 35 33 35 48 46 46 51 52 53 52 48 47 59 64 69 74 76 75 73 71 72 74 74 73 72 72 75 74 74 73 74 77 73 71 64 65 63 70 64
52 51 51 48 49 47 45 44 40 38 38 39 50 46 51 54 48 50 48 45 59 63 67 72 72 70 72 69 73 74 73 65 71 71 74 76 77 79 82 82 77 69 69 66 67 69 68
73 59 62 51 60 55 54 52 52 52 44 45 41 41 50 56 52 50 48 45 42 62 67 69 71 71 71 70 72 71 73 72 73 77 80 81 77 80 82 77 76 75 75 68 70 75 71
60 74 68 62 56 64 74 71 65 63 55 50 50 48 48 57 50 50 50 46 41 57 67 63 68 72 71 71 70 74 44 74 76 54 79 77 77 84 84 86 66 86 80 82 74 77 72
73 81 80 75 74 63 54 49 46 44 60 58 55 55 54 54 61 49 51 50 45 42 65 67 69 65 68 73 65 74 74 68 74 78 79 79 85 86 87 86 85 83 80 82 84 80 74
96 86 88 86 64 59 54 48 41 39 37 69 66 59 58 55 51 57 56 55 48 45 36 62 59 56 53 58 61 68 68 69 69 75 79 82 84 86 82 84 86 85 89 94 94 88 89
90 96 95 92 67 59 46 18 16 13 30 37 79 66 62 55 50 56 64 54 51 46 39 37 35 50 49 59 59 61 63 61 63 62 61 67 65 59 70 80 80 81 86 91 91 90 90
104 97 100 97 69 51 18 20 11 15 25 35 46 78 70 58 54 58 59 59 46 48 44 42 43 41 39 41 43 42 47 52 53 54 60 63 66 65 69 78 84 90 91 88 82 84 78
100 101 102 99 67 30 37 28 14 15 20 32 45 63 79 65 59 59 55 53 56 46 50 48 44 43 45 45 46 49 52 56 61 65 71 65 66 77 80 84 83 82 82 81 81 77 82
103 102 102 82 62 26 39 30 16 18 17 30 48 61 73 70 64 61 57 51 48 50 49 48 47 42 44 30 45 46 52 59 62 64 59 72 79 75 73 12 77 77 72 76 80 81 85
101 102 102 72 58 27 37 25 3 13 13 39 56 56 59 76 65 61 59 50 50 52 50 45 43 44 47 47 49 52 56 50 52 66 67 72 67 32 18 20 15 28 39 73 84 77 74
100 102 101 59 38 37 33 18 10 12 16 44 52 52 59 74 72 67 54 55 54 52 48 44 44 45 45 48 51 52 55 57 58 59 60 31 15 17 17 18 21 24 17 14 21 63 85
100 104 100 56 43 29 24 11 3 6 16 51 59 57 55 61 77 64 59 57 54 49 43 44 43 44 45 48 45 52 49 46 40 24 7 8 18 25 26 29 26 29 36 29 29 30 52
99 103 100 49 40 25 8 4 7 16 34 50 60 52 53 55 57 67 64 61 56 52 48 47 43 44 48 48 39 44 39 24 9 10 9 8 30 36 36 29 26 29 28 21 26 29 26
96 103 99 30 33 20 6 12 15 22 58 62 55 46 46 47 51 64 59 58 57 52 50 47 42 45 47 43 40 32 9 20 12 13 7 14 17 30 33 42 27 25 21 16 6 45 41
95 101 98 32 15 11 19 16 25 49 56 50 49 48 45 43 48 34 43 59 55 52 50 45 43 46 44 37 22 10 18 6 17 12 15 1 6 23 31 25 41 43 39 20 49 49 45
93 97 69 25 21 8 8 17 22 56 55 56 46 42 42 43 44 36 33 38 61 56 49 46 46 45 20 32 23 22 14 8 12 10 17 12 15 23 24 26 21 36 35 30 39 50 46
89 93 33 26 23 6 16 40 48 47 45 39 39 39 40 38 29 30 17 18 39 56 54 50 45 41 34 32 22 12 22 16 11 11 9 11 19 10 12 18 22 21 33 33 29 35 15
84 89 31 23 26 8 32 31 34 44 41 33 29 31 30 28 30 34 31 33 42 43 47 51 44 35 39 24 21 23 31 3 16 17 7 10 17 11 10 5 17 14 14 26 21 26 30
79 84 62 15 17 1 20 30 34 43 44 44 41 36 30 32 36 36 38 41 44 45 48 44 45 42 27 24 20 17 16 14 10 3 15 6 18 14 13 21 22 11 14 13 11 12 15
75 80 79 8 21 9 27 32 30 28 36 38 39 36 35 29 28 31 45 46 46 45 48 49 39 41 26 25 20 17 20 29 12 7 6 11 9 10 6 12 18 21 10 3 5 10 14
71 77 77 23 21 21 28 26 23 38 29 39 39 37 26 42 46 49 51 51 52 53 50 39 40 29 25 26 22 19 22 14 13 14 10 10 9 13 14 7 12 15 11 16 11 8 9
69 74 77 23 34 29 28 33 35 31 38 37 36 39 43 47 53 54 56 55 53 47 38 15 32 26 33 28 27 26 19 15 17 15 18 11 19 12 15 13 15 15 20 5 9 18 18
66 72 75 22 12 44 39 43 28 38 40 37 41 25 45 54 58 60 59 53 49 42 32 36 34 30 31 21 24 21 24 20 16 12 19 9 17 13 17 8 7 2 17 6 8 9 8
Wind_Direction
324 301 300 291 280 274 265 262 258 258 259 255 256 260 244 245 249 235 233 232 237 241 242 241 244 244 248 250 250 253 251 244 244 248 252 250 246 250 252 254 255 252 256 254 254 259 255
314 313 313 310 307 303 287 277 269 269 264 254 251 243 237 236 234 237 235 234 237 241 242 243 243 243 245 248 249 250 248 247 245 249 246 247 254 245 254 254 251 257 258 255 255 255 254
319 315 314 313 311 307 302 299 274 262 258 247 242 235 236 233 233 236 239 239 239 239 242 243 243 244 244 245 247 247 248 250 242 247 249 252 253 250 253 253 252 251 256 256 256 254 254
334 327 320 310 311 311 305 300 284 261 252 259 242 233 232 232 235 241 240 240 242 243 243 244 244 243 243 244 245 246 248 249 244 244 247 251 255 254 249 255 254 253 250 253 255 255 255
340 329 324 323 310 313 307 295 293 284 254 243 240 234 235 241 237 242 243 241 226 222 221 222 228 235 234 254 246 245 245 247 248 248 249 250 253 254 256 257 257 261 254 257 255 257 254
348 337 330 327 324 316 304 288 272 273 272 251 246 244 233 235 237 243 244 245 223 221 218 220 223 227 232 233 237 241 243 247 248 251 251 251 253 255 256 258 256 263 260 261 266 255 258
336 333 336 327 315 317 303 281 277 264 260 259 245 246 237 233 243 240 245 245 224 220 219 220 223 229 228 234 234 239 243 246 248 250 250 252 253 256 257 260 262 260 262 265 258 256 257
344 335 338 325 325 310 295 287 275 271 255 252 249 248 240 232 231 238 242 243 241 220 220 222 224 229 229 233 236 239 242 245 246 248 249 250 257 260 261 262 263 265 267 264 261 261 255
330 335 336 329 316 308 300 287 275 274 259 252 245 245 246 236 240 232 237 240 240 224 221 227 227 230 231 233 237 237 254 246 250 256 255 257 259 259 261 261 266 267 266 267 261 262 261
335 338 333 333 323 316 309 299 286 276 255 256 243 239 243 238 232 236 233 236 236 237 223 226 228 235 237 240 244 244 244 254 254 257 259 261 262 262 263 264 262 262 266 265 265 261 258
343 335 336 335 328 323 313 302 289 272 258 236 236 238 239 233 231 228 232 229 232 234 232 228 233 236 240 241 244 250 250 253 258 260 261 261 262 264 265 264 264 266 265 265 265 265 262
340 339 337 336 334 327 317 309 309 283 243 229 226 226 238 237 225 227 228 230 230 231 230 235 241 237 240 244 247 250 255 259 260 260 262 265 264 266 267 267 267 268 266 263 260 258 257
344 337 338 337 338 329 315 323 360 273 247 217 209 222 225 231 226 224 226 227 230 228 229 232 236 239 241 244 249 250 258 263 264 265 266 267 271 274 275 273 272 268 266 262 257 254 253
341 338 340 340 339 324 331 312 274 275 268 209 199 206 222 218 222 224 223 224 224 226 229 231 235 237 241 245 250 256 260 262 265 268 269 275 277 277 274 270 267 265 262 259 256 252 247
341 339 341 340 338 324 332 324 272 287 299 196 184 203 210 215 215 222 220 216 219 223 225 227 231 238 244 247 251 254 259 264 269 272 283 282 280 277 277 236 272 269 265 261 257 253 249
340 339 342 339 337 330 336 326 161 245 218 186 185 196 197 215 213 217 215 213 215 218 224 225 229 235 241 248 253 257 261 269 278 281 284 286 290 318 5 359 317 273 262 261 261 258 255
339 339 343 340 336 336 336 331 258 248 212 178 174 184 198 211 213 213 209 210 213 218 218 221 224 232 240 247 253 258 266 274 283 287 289 286 336 332 347 335 318 291 307 250 244 248 254
339 340 344 340 339 336 332 292 274 325 198 177 178 184 186 195 213 209 214 215 210 219 218 221 225 231 239 247 254 263 273 285 288 291 337 7 39 24 12 1 353 344 325 285 280 270 256
340 339 344 341 340 338 253 181 130 153 160 156 167 188 196 201 208 210 203 213 212 211 216 226 226 232 240 247 257 268 287 291 306 115 272 27 44 43 31 9 355 341 317 275 275 283 235
340 338 344 345 349 338 331 135 150 167 163 168 166 165 171 173 199 210 204 209 211 214 215 218 222 230 239 248 261 278 258 133 228 91 284 56 51 61 49 43 24 3 347 310 186 115 117
340 338 344 350 7 60 100 120 155 153 153 159 165 176 190 198 209 211 214 210 214 214 214 215 220 229 238 248 253 225 165 200 263 103 98 321 20 58 68 45 53 67 88 118 108 105 107
341 337 346 349 1 31 137 151 158 156 160 155 169 179 175 187 199 205 205 205 211 213 208 210 217 229 222 247 243 185 247 277 213 192 111 86 78 70 66 72 57 80 79 97 93 89 93
340 338 0 336 352 117 158 142 146 155 154 161 172 175 186 194 190 190 237 237 193 209 213 212 219 227 223 190 202 188 182 201 188 163 116 70 96 55 107 76 81 69 79 85 103 91 151
340 338 351 326 341 155 158 155 149 162 156 159 163 177 182 188 189 190 188 175 181 188 195 207 210 214 194 215 202 207 175 115 161 153 125 122 105 99 104 133 90 87 60 86 74 83 93
339 338 343 312 311 321 166 157 148 147 159 170 176 184 177 184 180 183 175 167 173 177 192 191 193 195 206 199 202 220 210 218 201 241 151 113 122 65 74 97 251 138 112 116 121 224 103
339 336 348 262 286 298 170 162 164 166 168 169 169 174 176 173 178 175 162 163 163 169 177 178 191 193 194 198 192 190 173 181 228 149 73 164 148 229 179 209 129 67 93 135 130 113 134
339 336 346 338 238 245 185 177 187 177 185 173 174 173 170 165 162 162 163 162 164 170 175 182 186 187 189 181 178 200 180 207 148 201 189 203 203 129 185 187 175 128 80 70 91 116 173
339 334 346 338 203 226 202 189 189 195 192 187 185 175 169 167 167 167 164 168 170 173 180 228 183 173 196 196 188 191 190 203 190 213 133 166 149 221 221 168 78 143 107 69 106 93 86
339 334 352 336 301 207 195 192 211 202 204 198 189 188 175 171 169 168 170 173 172 179 185 181 182 180 196 189 193 196 198 207 182 167 223 184 143 253 241 200 193 288 143 162 335 23 341